,,Stat6,,Stat2,,Stat8,,Stat9,,Stat10,,Wind1,,Wind1,
time,status,PA1M_AVG,status,PR1M_SUM,status,RH1M_AVG,status,SR1M_AVG,status,TA1M_AVG,status,W1dAve1m,status,W1sAve1m,
2005-07-06, 00:00:00,VALID,918.799,VALID,0,VALID,98.8736,VALID,0.0509425,VALID,17.5633,VALID,134,VALID,0.974888,
2005-07-06, 00:01:00,VALID,918.782,VALID,0,VALID,98.632,VALID,0.0339617,VALID,17.5668,VALID,137,VALID,0.892624,
2005-07-06, 00:02:00,VALID,918.753,VALID,0,VALID,98.6256,VALID,0.0169808,VALID,17.5732,VALID,145,VALID,0.913021,
2005-07-06, 00:03:00,VALID,918.741,VALID,0,VALID,98.8571,VALID,0.0509425,VALID,17.5893,VALID,151,VALID,1.24877,
2005-07-06, 00:04:00,VALID,918.738,VALID,0,VALID,99.0249,VALID,0.0509425,VALID,17.6279,VALID,151,VALID,1.25819,
2005-07-06, 00:05:00,VALID,918.734,VALID,0,VALID,98.969,VALID,0.0339617,VALID,17.641,VALID,148,VALID,1.07977,
2005-07-06, 00:06:00,VALID,918.737,VALID,0,VALID,98.9436,VALID,0.0509425,VALID,17.638,VALID,150,VALID,1.04762,
2005-07-06, 00:07:00,VALID,918.737,VALID,0,VALID,98.9931,VALID,0,VALID,17.6373,VALID,145,VALID,1.11585,
2005-07-06, 00:08:00,VALID,918.737,VALID,0,VALID,99.016,VALID,0,VALID,17.6249,VALID,141,VALID,1.02798,
2005-07-06, 00:09:00,VALID,918.725,VALID,0,VALID,99.0287,VALID,0.0339617,VALID,17.6152,VALID,139,VALID,0.707961,
2005-07-06, 00:10:00,VALID,918.737,VALID,0,VALID,99.0478,VALID,0.0169808,VALID,17.602,VALID,130,VALID,0.763445,
2005-07-06, 00:11:00,VALID,918.735,VALID,0,VALID,99.1521,VALID,0.0339617,VALID,17.5889,VALID,129,VALID,0.639063,
2005-07-06, 00:12:00,VALID,918.721,VALID,0,VALID,99.0961,VALID,0.0509425,VALID,17.57,VALID,129,VALID,0.216273,
2005-07-06, 00:13:00,VALID,918.711,VALID,0,VALID,98.9868,VALID,0.0509425,VALID,17.5504,VALID,119,VALID,0.668968,
2005-07-06, 00:14:00,VALID,918.709,VALID,0,VALID,99.0262,VALID,0.0679233,VALID,17.5244,VALID,114,VALID,0.906432,
2005-07-06, 00:15:00,VALID,918.69,VALID,0,VALID,99.1737,VALID,0.0509425,VALID,17.5313,VALID,105,VALID,1.04545,
2005-07-06, 00:16:00,VALID,918.694,VALID,0,VALID,99.0618,VALID,0.0509425,VALID,17.531,VALID,97,VALID,1.14827,
2005-07-06, 00:17:00,VALID,918.692,VALID,0,VALID,98.7833,VALID,0.0509425,VALID,17.5211,VALID,88,VALID,1.09322,
2005-07-06, 00:18:00,VALID,918.696,VALID,0,VALID,98.6536,VALID,0.0169808,VALID,17.5211,VALID,100,VALID,1.17721,
2005-07-06, 00:19:00,VALID,918.707,VALID,0,VALID,98.5672,VALID,0.0679233,VALID,17.5338,VALID,105,VALID,1.15098,
2005-07-06, 00:20:00,VALID,918.7,VALID,0,VALID,98.4108,VALID,0.0339617,VALID,17.5569,VALID,115,VALID,1.14153,
2005-07-06, 00:21:00,VALID,918.702,VALID,0,VALID,98.1145,VALID,0.0679233,VALID,17.5698,VALID,109,VALID,0.817969,
2005-07-06, 00:22:00,VALID,918.684,VALID,0,VALID,97.7088,VALID,0.0679233,VALID,17.5502,VALID,112,VALID,0.644886,
2005-07-06, 00:23:00,VALID,918.659,VALID,0,VALID,97.8487,VALID,0.0339617,VALID,17.5437,VALID,111,VALID,0.895774,
2005-07-06, 00:24:00,VALID,918.643,VALID,0,VALID,97.8741,VALID,0.0679233,VALID,17.5437,VALID,111,VALID,0.889535,
2005-07-06, 00:25:00,VALID,918.623,VALID,0,VALID,98.0051,VALID,0.0849042,VALID,17.5734,VALID,111,VALID,0.871626,
2005-07-06, 00:26:00,VALID,918.606,VALID,0,VALID,97.8029,VALID,0.0509425,VALID,17.5663,VALID,111,VALID,0.621094,
2005-07-06, 00:27:00,VALID,918.601,VALID,0,VALID,97.7101,VALID,0.0679233,VALID,17.5599,VALID,112,VALID,0.666992,
2005-07-06, 00:28:00,VALID,918.593,VALID,0,VALID,97.8754,VALID,0.0679233,VALID,17.5467,VALID,113,VALID,0.753815,
2005-07-06, 00:29:00,VALID,918.607,VALID,0,VALID,97.7457,VALID,0.0849042,VALID,17.5371,VALID,113,VALID,0.609028,
2005-07-06, 00:30:00,VALID,918.602,VALID,0,VALID,97.9161,VALID,0.101885,VALID,17.5237,VALID,115,VALID,0.635742,
2005-07-06, 00:31:00,VALID,918.626,VALID,0,VALID,97.9657,VALID,0.0679233,VALID,17.5306,VALID,115,VALID,0.476563,
2005-07-06, 00:32:00,VALID,918.637,VALID,0,VALID,98.0382,VALID,0.101885,VALID,17.5502,VALID,115,VALID,0.53924,
2005-07-06, 00:33:00,VALID,918.65,VALID,0,VALID,98.075,VALID,0.0679233,VALID,17.5566,VALID,115,VALID,0.704055,
2005-07-06, 00:34:00,VALID,918.659,VALID,0,VALID,98.1564,VALID,0.0679233,VALID,17.5497,VALID,120,VALID,0.792333,
2005-07-06, 00:35:00,VALID,918.661,VALID,0,VALID,98.2645,VALID,0.0849042,VALID,17.5435,VALID,136,VALID,0.725852,
2005-07-06, 00:36:00,VALID,918.658,VALID,0,VALID,98.234,VALID,0.0849042,VALID,17.5631,VALID,136,VALID,0.731179,
2005-07-06, 00:37:00,VALID,918.669,VALID,0,VALID,98.0725,VALID,0.0849042,VALID,17.5403,VALID,134,VALID,0.559126,
2005-07-06, 00:38:00,VALID,918.656,VALID,0,VALID,98.1564,VALID,0.0339617,VALID,17.5149,VALID,126,VALID,0.707812,
2005-07-06, 00:39:00,VALID,918.646,VALID,0,VALID,98.1717,VALID,0.0679233,VALID,17.5179,VALID,126,VALID,0.745139,
2005-07-06, 00:40:00,VALID,918.628,VALID,0,VALID,97.9186,VALID,0.0679233,VALID,17.534,VALID,126,VALID,0.657965,
2005-07-06, 00:41:00,VALID,918.614,VALID,0,VALID,97.6834,VALID,0.101885,VALID,17.5497,VALID,126,VALID,0.700462,
2005-07-06, 00:42:00,VALID,918.582,VALID,0,VALID,97.6147,VALID,0.0169808,VALID,17.5571,VALID,129,VALID,0.677326,
2005-07-06, 00:43:00,VALID,918.562,VALID,0,VALID,97.3884,VALID,-0.0169808,VALID,17.5806,VALID,133,VALID,0.883358,
2005-07-06, 00:44:00,VALID,918.535,VALID,0,VALID,97.3604,VALID,0,VALID,17.5898,VALID,139,VALID,1.08213,
2005-07-06, 00:45:00,VALID,918.518,VALID,0,VALID,97.218,VALID,-0.0169808,VALID,17.6156,VALID,135,VALID,1.0668,
2005-07-06, 00:46:00,VALID,918.494,VALID,0,VALID,96.9153,VALID,0,VALID,17.6417,VALID,134,VALID,0.793968,
2005-07-06, 00:47:00,VALID,918.485,VALID,0,VALID,96.7831,VALID,-0.0509425,VALID,17.6384,VALID,134,VALID,0.953683,
2005-07-06, 00:48:00,VALID,918.475,VALID,0,VALID,96.8187,VALID,-0.0509425,VALID,17.6449,VALID,134,VALID,0.750545,
2005-07-06, 00:49:00,VALID,918.486,VALID,0,VALID,96.7081,VALID,-0.0339617,VALID,17.6645,VALID,134,VALID,0.730741,
2005-07-06, 00:50:00,VALID,918.499,VALID,0,VALID,96.8568,VALID,0,VALID,17.6576,VALID,139,VALID,0.951079,
2005-07-06, 00:51:00,VALID,918.507,VALID,0,VALID,96.9001,VALID,-0.0169808,VALID,17.6737,VALID,143,VALID,0.825391,
2005-07-06, 00:52:00,VALID,918.516,VALID,0,VALID,96.8022,VALID,-0.0339617,VALID,17.6896,VALID,146,VALID,0.865104,
2005-07-06, 00:53:00,VALID,918.533,VALID,0,VALID,96.5974,VALID,-0.0169808,VALID,17.6995,VALID,141,VALID,0.884993,
2005-07-06, 00:54:00,VALID,918.56,VALID,0,VALID,96.5033,VALID,0,VALID,17.7161,VALID,138,VALID,0.902699,
2005-07-06, 00:55:00,VALID,918.583,VALID,0,VALID,96.4525,VALID,0,VALID,17.7062,VALID,132,VALID,0.787609,
2005-07-06, 00:56:00,VALID,918.587,VALID,0,VALID,96.3775,VALID,0,VALID,17.6862,VALID,132,VALID,0.763477,
2005-07-06, 00:57:00,VALID,918.569,VALID,0,VALID,96.2541,VALID,0,VALID,17.6769,VALID,131,VALID,0.416853,
2005-07-06, 00:58:00,VALID,918.558,VALID,0,VALID,96.1002,VALID,-0.0169808,VALID,17.6481,VALID,127,VALID,0.529978,
2005-07-06, 00:59:00,VALID,918.529,VALID,0,VALID,96.3177,VALID,-0.0169808,VALID,17.6223,VALID,122,VALID,0.739462,
2005-07-06, 01:00:00,VALID,918.505,VALID,0,VALID,96.3444,VALID,-0.0169808,VALID,17.6064,VALID,117,VALID,0.876635,
2005-07-06, 01:01:00,VALID,918.489,VALID,0,VALID,96.4105,VALID,-0.0169808,VALID,17.6029,VALID,112,VALID,0.905506,
2005-07-06, 01:02:00,VALID,918.471,VALID,0,VALID,96.427,VALID,-0.0169808,VALID,17.587,VALID,141,VALID,0.54851,
2005-07-06, 01:03:00,VALID,918.456,VALID,0,VALID,96.4944,VALID,-0.0169808,VALID,17.5543,VALID,125,VALID,0.649891,
2005-07-06, 01:04:00,VALID,918.461,VALID,0,VALID,96.7271,VALID,-0.0339617,VALID,17.5285,VALID,122,VALID,0.545346,
2005-07-06, 01:05:00,VALID,918.456,VALID,0,VALID,96.9598,VALID,-0.0339617,VALID,17.5128,VALID,122,VALID,0.46513,
2005-07-06, 01:06:00,VALID,918.446,VALID,0,VALID,97.0959,VALID,-0.0509425,VALID,17.4928,VALID,124,VALID,0.426153,
2005-07-06, 01:07:00,VALID,918.438,VALID,0,VALID,97.0629,VALID,-0.0169808,VALID,17.4803,VALID,124,VALID,0.154916,
2005-07-06, 01:08:00,VALID,918.449,VALID,0,VALID,96.9637,VALID,-0.0169808,VALID,17.4476,VALID,124,VALID,0.0852581,
2005-07-06, 01:09:00,VALID,918.457,VALID,0,VALID,97.0819,VALID,-0.0169808,VALID,17.4355,VALID,124,VALID,0.172222,
2005-07-06, 01:10:00,VALID,918.457,VALID,0,VALID,97.2599,VALID,0,VALID,17.416,VALID,124,VALID,0.356707,
2005-07-06, 01:11:00,VALID,918.465,VALID,0,VALID,97.5003,VALID,-0.0339617,VALID,17.4129,VALID,124,VALID,0.517442,
2005-07-06, 01:12:00,VALID,918.469,VALID,0,VALID,97.4723,VALID,0,VALID,17.3994,VALID,124,VALID,0.52832,
2005-07-06, 01:13:00,VALID,918.465,VALID,0,VALID,97.4748,VALID,-0.0339617,VALID,17.4093,VALID,124,VALID,0.511133,
2005-07-06, 01:14:00,VALID,918.454,VALID,0,VALID,97.5855,VALID,-0.0339617,VALID,17.419,VALID,123,VALID,0.7742,
2005-07-06, 01:15:00,VALID,918.427,VALID,0,VALID,97.5066,VALID,0,VALID,17.4409,VALID,123,VALID,1.04792,
2005-07-06, 01:16:00,VALID,918.414,VALID,0,VALID,97.2561,VALID,0,VALID,17.4861,VALID,123,VALID,0.984561,
2005-07-06, 01:17:00,VALID,918.37,VALID,0,VALID,97.0692,VALID,0,VALID,17.5287,VALID,122,VALID,0.965701,
2005-07-06, 01:18:00,VALID,918.361,VALID,0,VALID,96.8263,VALID,0,VALID,17.5668,VALID,120,VALID,0.943788,
2005-07-06, 01:19:00,VALID,918.344,VALID,0,VALID,96.3711,VALID,-0.0169808,VALID,17.6318,VALID,118,VALID,1.09066,
2005-07-06, 01:20:00,VALID,918.336,VALID,0,VALID,96.1931,VALID,-0.0509425,VALID,17.6675,VALID,114,VALID,1.09877,
2005-07-06, 01:21:00,VALID,918.324,VALID,0,VALID,95.8675,VALID,-0.0509425,VALID,17.703,VALID,116,VALID,0.774023,
2005-07-06, 01:22:00,VALID,918.326,VALID,0,VALID,95.701,VALID,0,VALID,17.6931,VALID,115,VALID,0.696766,
2005-07-06, 01:23:00,VALID,918.326,VALID,0,VALID,95.7124,VALID,0.0169808,VALID,17.6606,VALID,119,VALID,0.681504,
2005-07-06, 01:24:00,VALID,918.32,VALID,0,VALID,95.6844,VALID,-0.0169808,VALID,17.6451,VALID,119,VALID,0.576451,
2005-07-06, 01:25:00,VALID,918.319,VALID,0,VALID,95.7455,VALID,0,VALID,17.6124,VALID,118,VALID,0.664789,
2005-07-06, 01:26:00,VALID,918.304,VALID,0,VALID,95.9388,VALID,-0.0169808,VALID,17.5612,VALID,118,VALID,0.580469,
2005-07-06, 01:27:00,VALID,918.286,VALID,0,VALID,96.1053,VALID,-0.0339617,VALID,17.5384,VALID,118,VALID,0.533612,
2005-07-06, 01:28:00,VALID,918.288,VALID,0,VALID,96.2757,VALID,0,VALID,17.5128,VALID,118,VALID,0.698103,
2005-07-06, 01:29:00,VALID,918.264,VALID,0,VALID,96.2198,VALID,-0.0509425,VALID,17.5031,VALID,118,VALID,0.618786,
2005-07-06, 01:30:00,VALID,918.274,VALID,0,VALID,96.4296,VALID,-0.0169808,VALID,17.4801,VALID,118,VALID,0.755766,
2005-07-06, 01:31:00,VALID,918.269,VALID,0,VALID,96.235,VALID,-0.0339617,VALID,17.4706,VALID,118,VALID,0.407012,
2005-07-06, 01:32:00,VALID,918.295,VALID,0,VALID,96.132,VALID,-0.0509425,VALID,17.4448,VALID,118,VALID,0.314732,
2005-07-06, 01:33:00,VALID,918.294,VALID,0,VALID,96.2185,VALID,-0.0169808,VALID,17.4217,VALID,118,VALID,0.0600818,
2005-07-06, 01:34:00,VALID,918.297,VALID,0,VALID,96.3711,VALID,-0.0169808,VALID,17.4127,VALID,118,VALID,0,
2005-07-06, 01:35:00,VALID,918.279,VALID,0,VALID,96.4868,VALID,0,VALID,17.3865,VALID,118,VALID,0,
2005-07-06, 01:36:00,VALID,918.284,VALID,0,VALID,96.6483,VALID,-0.0509425,VALID,17.3867,VALID,118,VALID,0,
2005-07-06, 01:37:00,VALID,918.288,VALID,0,VALID,96.6229,VALID,-0.0339617,VALID,17.4157,VALID,118,VALID,0,
2005-07-06, 01:38:00,VALID,918.27,VALID,0,VALID,96.5237,VALID,-0.0339617,VALID,17.4252,VALID,118,VALID,0,
2005-07-06, 01:39:00,VALID,918.263,VALID,0,VALID,96.6559,VALID,-0.0169808,VALID,17.4515,VALID,118,VALID,0.210747,
2005-07-06, 01:40:00,VALID,918.285,VALID,0,VALID,96.4601,VALID,-0.0679233,VALID,17.4902,VALID,118,VALID,0.394354,
2005-07-06, 01:41:00,VALID,918.286,VALID,0,VALID,96.2274,VALID,0,VALID,17.5319,VALID,118,VALID,0.330078,
2005-07-06, 01:42:00,VALID,918.3,VALID,0,VALID,95.8624,VALID,-0.0169808,VALID,17.5513,VALID,118,VALID,0.0637019,
2005-07-06, 01:43:00,VALID,918.308,VALID,0,VALID,95.7518,VALID,-0.0339617,VALID,17.5515,VALID,118,VALID,0,
2005-07-06, 01:44:00,VALID,918.324,VALID,0,VALID,95.7175,VALID,-0.0339617,VALID,17.5386,VALID,118,VALID,0,
2005-07-06, 01:45:00,VALID,918.344,VALID,0,VALID,95.6984,VALID,-0.0339617,VALID,17.5188,VALID,118,VALID,0.0743096,
2005-07-06, 01:46:00,VALID,918.364,VALID,0,VALID,95.9629,VALID,0,VALID,17.4994,VALID,118,VALID,0.41582,
2005-07-06, 01:47:00,VALID,918.363,VALID,0,VALID,96.2834,VALID,-0.0339617,VALID,17.5061,VALID,118,VALID,0.604833,
2005-07-06, 01:48:00,VALID,918.371,VALID,0,VALID,96.1791,VALID,-0.0679233,VALID,17.4934,VALID,131,VALID,0.67309,
2005-07-06, 01:49:00,VALID,918.368,VALID,0,VALID,95.8841,VALID,-0.101885,VALID,17.4713,VALID,146,VALID,0.413715,
2005-07-06, 01:50:00,VALID,918.365,VALID,0,VALID,96.1867,VALID,-0.0509425,VALID,17.4291,VALID,146,VALID,0.295351,
2005-07-06, 01:51:00,VALID,918.357,VALID,0,VALID,96.5593,VALID,-0.0169808,VALID,17.4162,VALID,146,VALID,0.333333,
2005-07-06, 01:52:00,VALID,918.367,VALID,0,VALID,96.4385,VALID,-0.0339617,VALID,17.3774,VALID,146,VALID,0.277083,
2005-07-06, 01:53:00,VALID,918.377,VALID,0,VALID,96.7653,VALID,-0.0679233,VALID,17.3351,VALID,146,VALID,0.239524,
2005-07-06, 01:54:00,VALID,918.38,VALID,0,VALID,97.1836,VALID,-0.0849042,VALID,17.3293,VALID,146,VALID,0.237749,
2005-07-06, 01:55:00,VALID,918.396,VALID,0,VALID,97.5473,VALID,-0.0339617,VALID,17.3224,VALID,146,VALID,0.27255,
2005-07-06, 01:56:00,VALID,918.394,VALID,0,VALID,97.7317,VALID,-0.0339617,VALID,17.3323,VALID,146,VALID,0.0978516,
2005-07-06, 01:57:00,VALID,918.387,VALID,0,VALID,97.6618,VALID,-0.0509425,VALID,17.3643,VALID,146,VALID,0,
2005-07-06, 01:58:00,VALID,918.366,VALID,0,VALID,97.4672,VALID,-0.0339617,VALID,17.3742,VALID,146,VALID,0,
2005-07-06, 01:59:00,VALID,918.366,VALID,0,VALID,97.5995,VALID,-0.0339617,VALID,17.4063,VALID,146,VALID,0,
2005-07-06, 02:00:00,VALID,918.364,VALID,0,VALID,97.6503,VALID,-0.0339617,VALID,17.4452,VALID,146,VALID,0,
2005-07-06, 02:01:00,VALID,918.375,VALID,0,VALID,97.4164,VALID,-0.0509425,VALID,17.4807,VALID,146,VALID,0,
2005-07-06, 02:02:00,VALID,918.379,VALID,0,VALID,96.9993,VALID,-0.0509425,VALID,17.4446,VALID,146,VALID,0.123666,
2005-07-06, 02:03:00,VALID,918.376,VALID,0,VALID,96.9433,VALID,-0.0339617,VALID,17.4155,VALID,146,VALID,0.149805,
2005-07-06, 02:04:00,VALID,918.374,VALID,0,VALID,96.6636,VALID,-0.0169808,VALID,17.3802,VALID,146,VALID,0.204545,
2005-07-06, 02:05:00,VALID,918.352,VALID,0,VALID,97.0997,VALID,-0.0509425,VALID,17.3772,VALID,146,VALID,0.207122,
2005-07-06, 02:06:00,VALID,918.35,VALID,0,VALID,97.6198,VALID,-0.0339617,VALID,17.4097,VALID,146,VALID,0.236607,
2005-07-06, 02:07:00,VALID,918.34,VALID,0,VALID,97.7114,VALID,0,VALID,17.4517,VALID,146,VALID,0.283913,
2005-07-06, 02:08:00,VALID,918.333,VALID,0,VALID,97.6885,VALID,-0.0169808,VALID,17.4771,VALID,146,VALID,0.276953,
2005-07-06, 02:09:00,VALID,918.339,VALID,0,VALID,97.8309,VALID,-0.0339617,VALID,17.4994,VALID,144,VALID,0.314546,
2005-07-06, 02:10:00,VALID,918.345,VALID,0,VALID,97.663,VALID,-0.0509425,VALID,17.5229,VALID,141,VALID,0.321023,
2005-07-06, 02:11:00,VALID,918.351,VALID,0,VALID,97.1824,VALID,-0.0339617,VALID,17.4999,VALID,125,VALID,0.465234,
2005-07-06, 02:12:00,VALID,918.34,VALID,0,VALID,97.6719,VALID,-0.0339617,VALID,17.4773,VALID,336,VALID,0.466619,
2005-07-06, 02:13:00,VALID,918.332,VALID,0,VALID,98.0865,VALID,0,VALID,17.5257,VALID,338,VALID,0.580329,
2005-07-06, 02:14:00,VALID,918.313,VALID,0,VALID,98.4171,VALID,-0.0509425,VALID,17.5674,VALID,350,VALID,0.612393,
2005-07-06, 02:15:00,VALID,918.288,VALID,0,VALID,98.0674,VALID,-0.0339617,VALID,17.5607,VALID,350,VALID,0.491461,
2005-07-06, 02:16:00,VALID,918.267,VALID,0,VALID,98.3929,VALID,-0.0509425,VALID,17.61,VALID,350,VALID,0.5625,
2005-07-06, 02:17:00,VALID,918.262,VALID,0,VALID,97.9136,VALID,-0.0339617,VALID,17.6004,VALID,350,VALID,0.517721,
2005-07-06, 02:18:00,VALID,918.245,VALID,0,VALID,98.2721,VALID,-0.0169808,VALID,17.6257,VALID,350,VALID,0.493164,
2005-07-06, 02:19:00,VALID,918.249,VALID,0,VALID,98.5888,VALID,-0.0339617,VALID,17.6871,VALID,350,VALID,0.18471,
2005-07-06, 02:20:00,VALID,918.227,VALID,0,VALID,98.6282,VALID,-0.0509425,VALID,17.7226,VALID,350,VALID,0.208651,
2005-07-06, 02:21:00,VALID,918.231,VALID,0,VALID,98.4502,VALID,-0.0509425,VALID,17.7454,VALID,350,VALID,0.119368,
2005-07-06, 02:22:00,VALID,918.213,VALID,0,VALID,98.4972,VALID,-0.0169808,VALID,17.7777,VALID,350,VALID,0.12965,
2005-07-06, 02:23:00,VALID,918.208,VALID,0,VALID,98.8075,VALID,-0.0509425,VALID,17.8261,VALID,350,VALID,0.25651,
2005-07-06, 02:24:00,VALID,918.197,VALID,0,VALID,98.6371,VALID,-0.0169808,VALID,17.8616,VALID,350,VALID,0.334121,
2005-07-06, 02:25:00,VALID,918.204,VALID,0,VALID,98.4413,VALID,-0.0509425,VALID,17.8775,VALID,350,VALID,0.375744,
2005-07-06, 02:26:00,VALID,918.198,VALID,0,VALID,98.3154,VALID,-0.0339617,VALID,17.8805,VALID,350,VALID,0.292878,
2005-07-06, 02:27:00,VALID,918.206,VALID,0,VALID,98.4044,VALID,-0.0849042,VALID,17.8844,VALID,350,VALID,0.441907,
2005-07-06, 02:28:00,VALID,918.205,VALID,0,VALID,98.6066,VALID,-0.0509425,VALID,17.9005,VALID,350,VALID,0.532853,
2005-07-06, 02:29:00,VALID,918.191,VALID,0,VALID,98.7452,VALID,-0.0509425,VALID,17.9003,VALID,350,VALID,0.605183,
2005-07-06, 02:30:00,VALID,918.201,VALID,0,VALID,98.8952,VALID,-0.0509425,VALID,17.9105,VALID,350,VALID,0.71147,
2005-07-06, 02:31:00,VALID,918.192,VALID,0,VALID,98.8596,VALID,-0.101885,VALID,17.91,VALID,350,VALID,0.425409,
2005-07-06, 02:32:00,VALID,918.188,VALID,0,VALID,99.0109,VALID,-0.101885,VALID,17.9238,VALID,350,VALID,0.499512,
2005-07-06, 02:33:00,VALID,918.193,VALID,0,VALID,99.2996,VALID,-0.0679233,VALID,17.9524,VALID,350,VALID,0.568859,
2005-07-06, 02:34:00,VALID,918.165,VALID,0,VALID,99.3568,VALID,-0.0849042,VALID,17.9683,VALID,350,VALID,0.608073,
2005-07-06, 02:35:00,VALID,918.165,VALID,0,VALID,99.2411,VALID,-0.0849042,VALID,17.9978,VALID,350,VALID,0.386347,
2005-07-06, 02:36:00,VALID,918.151,VALID,0,VALID,98.955,VALID,-0.0679233,VALID,17.9976,VALID,350,VALID,0.283594,
2005-07-06, 02:37:00,VALID,918.145,VALID,0,VALID,99.0377,VALID,-0.0509425,VALID,18.0133,VALID,350,VALID,0.262429,
2005-07-06, 02:38:00,VALID,918.14,VALID,0,VALID,98.838,VALID,-0.0339617,VALID,18.0135,VALID,350,VALID,0.358422,
2005-07-06, 02:39:00,VALID,918.122,VALID,0,VALID,98.8825,VALID,-0.0679233,VALID,18.0294,VALID,350,VALID,0.446403,
2005-07-06, 02:40:00,VALID,918.099,VALID,0,VALID,98.4807,VALID,-0.101885,VALID,18.0165,VALID,350,VALID,0.460417,
2005-07-06, 02:41:00,VALID,918.084,VALID,0,VALID,98.4196,VALID,-0.0849042,VALID,17.9974,VALID,350,VALID,0.679497,
2005-07-06, 02:42:00,VALID,918.068,VALID,0,VALID,98.6625,VALID,-0.0679233,VALID,18.0168,VALID,5,VALID,0.506669,
2005-07-06, 02:43:00,VALID,918.051,VALID,0,VALID,98.4362,VALID,-0.0679233,VALID,17.9907,VALID,2,VALID,0.640625,
2005-07-06, 02:44:00,VALID,918.04,VALID,0,VALID,98.5951,VALID,-0.0679233,VALID,18.0262,VALID,353,VALID,0.770089,
2005-07-06, 02:45:00,VALID,918.036,VALID,0,VALID,98.2276,VALID,-0.0509425,VALID,18.0225,VALID,4,VALID,0.748728,
2005-07-06, 02:46:00,VALID,918.044,VALID,0,VALID,98.0687,VALID,-0.0509425,VALID,18.0359,VALID,1,VALID,0.624479,
2005-07-06, 02:47:00,VALID,918.041,VALID,0,VALID,98.0267,VALID,-0.0509425,VALID,18.0354,VALID,356,VALID,0.490104,
2005-07-06, 02:48:00,VALID,918.024,VALID,0,VALID,98.295,VALID,-0.0679233,VALID,18.0357,VALID,356,VALID,0.5712,
2005-07-06, 02:49:00,VALID,918.017,VALID,0,VALID,98.5328,VALID,-0.101885,VALID,18.0488,VALID,356,VALID,0.514863,
2005-07-06, 02:50:00,VALID,918.001,VALID,0,VALID,98.7337,VALID,0,VALID,18.0583,VALID,356,VALID,0.664789,
2005-07-06, 02:51:00,VALID,917.994,VALID,0,VALID,98.9054,VALID,-0.0169808,VALID,18.0781,VALID,342,VALID,0.777951,
2005-07-06, 02:52:00,VALID,917.997,VALID,0,VALID,98.9168,VALID,-0.0849042,VALID,18.1007,VALID,328,VALID,0.688672,
2005-07-06, 02:53:00,VALID,917.983,VALID,0,VALID,99.002,VALID,-0.0849042,VALID,18.1201,VALID,332,VALID,0.431141,
2005-07-06, 02:54:00,VALID,917.984,VALID,0,VALID,98.5608,VALID,-0.0849042,VALID,18.094,VALID,332,VALID,0.00186012,
2005-07-06, 02:55:00,VALID,917.989,VALID,0,VALID,98.309,VALID,-0.0509425,VALID,18.0645,VALID,332,VALID,0,
2005-07-06, 02:56:00,VALID,917.988,VALID,0,VALID,98.5964,VALID,-0.0509425,VALID,18.0682,VALID,332,VALID,0,
2005-07-06, 02:57:00,VALID,917.987,VALID,0,VALID,98.6218,VALID,-0.0509425,VALID,18.0744,VALID,332,VALID,0,
2005-07-06, 02:58:00,VALID,917.978,VALID,0,VALID,98.7045,VALID,-0.0679233,VALID,18.0942,VALID,332,VALID,0,
2005-07-06, 02:59:00,VALID,917.969,VALID,0,VALID,98.8418,VALID,-0.0509425,VALID,18.1005,VALID,332,VALID,0,
2005-07-06, 03:00:00,VALID,917.953,VALID,0,VALID,98.8227,VALID,-0.0509425,VALID,18.1035,VALID,332,VALID,0,
2005-07-06, 03:01:00,VALID,917.932,VALID,0,VALID,98.3917,VALID,-0.0679233,VALID,18.0649,VALID,332,VALID,0,
2005-07-06, 03:02:00,VALID,917.936,VALID,0,VALID,97.986,VALID,-0.101885,VALID,18.0228,VALID,332,VALID,0,
2005-07-06, 03:03:00,VALID,917.936,VALID,0,VALID,97.9657,VALID,-0.0679233,VALID,17.9944,VALID,332,VALID,0,
2005-07-06, 03:04:00,VALID,917.953,VALID,0,VALID,98.0344,VALID,-0.0509425,VALID,17.9522,VALID,332,VALID,0,
2005-07-06, 03:05:00,VALID,917.94,VALID,0,VALID,98.1628,VALID,-0.0679233,VALID,17.9098,VALID,332,VALID,0,
2005-07-06, 03:06:00,VALID,917.935,VALID,0,VALID,98.3624,VALID,-0.0339617,VALID,17.8835,VALID,332,VALID,0,
2005-07-06, 03:07:00,VALID,917.931,VALID,0,VALID,98.2645,VALID,-0.0679233,VALID,17.8484,VALID,332,VALID,0,
2005-07-06, 03:08:00,VALID,917.938,VALID,0,VALID,98.2976,VALID,-0.0679233,VALID,17.8,VALID,332,VALID,0.184642,
2005-07-06, 03:09:00,VALID,917.946,VALID,0,VALID,98.3777,VALID,-0.0509425,VALID,17.7452,VALID,332,VALID,0.341016,
2005-07-06, 03:10:00,VALID,917.967,VALID,0,VALID,98.2048,VALID,-0.0169808,VALID,17.6838,VALID,332,VALID,0.482686,
2005-07-06, 03:11:00,VALID,917.997,VALID,0,VALID,98.2543,VALID,-0.0679233,VALID,17.6227,VALID,335,VALID,0.48383,
2005-07-06, 03:12:00,VALID,918.013,VALID,0,VALID,97.8525,VALID,0.0169808,VALID,17.5181,VALID,346,VALID,0.682958,
2005-07-06, 03:13:00,VALID,918.018,VALID,0,VALID,98.6078,VALID,0.0509425,VALID,17.4661,VALID,354,VALID,0.816146,
2005-07-06, 03:14:00,VALID,918.021,VALID,0,VALID,99.5743,VALID,0.0339617,VALID,17.5078,VALID,354,VALID,0.56851,
2005-07-06, 03:15:00,VALID,918.036,VALID,0,VALID,99.8006,VALID,0.0339617,VALID,17.5601,VALID,354,VALID,0.456659,
2005-07-06, 03:16:00,VALID,918.048,VALID,0,VALID,99.8248,VALID,0,VALID,17.6053,VALID,354,VALID,0.56907,
2005-07-06, 03:17:00,VALID,918.069,VALID,0,VALID,99.9733,VALID,0.0169808,VALID,17.6926,VALID,354,VALID,0.328516,
2005-07-06, 03:18:00,VALID,918.074,VALID,0,VALID,99.8667,VALID,0,VALID,17.7639,VALID,354,VALID,0.0546875,
2005-07-06, 03:19:00,VALID,918.073,VALID,0,VALID,99.6099,VALID,0.0169808,VALID,17.8056,VALID,354,VALID,0,
2005-07-06, 03:20:00,VALID,918.08,VALID,0,VALID,99.3657,VALID,0.0169808,VALID,17.8215,VALID,354,VALID,0.0643029,
2005-07-06, 03:21:00,VALID,918.081,VALID,0,VALID,99.3695,VALID,0.0339617,VALID,17.8927,VALID,354,VALID,0.168968,
2005-07-06, 03:22:00,VALID,918.073,VALID,0,VALID,99.2615,VALID,0.0169808,VALID,17.9442,VALID,354,VALID,0.282493,
2005-07-06, 03:23:00,VALID,918.073,VALID,0,VALID,99.0491,VALID,0.0339617,VALID,17.9861,VALID,354,VALID,0.324673,
2005-07-06, 03:24:00,VALID,918.046,VALID,0,VALID,98.7706,VALID,0.0169808,VALID,18.0253,VALID,354,VALID,0.203683,
2005-07-06, 03:25:00,VALID,918.038,VALID,0,VALID,98.5455,VALID,0.0509425,VALID,18.0313,VALID,354,VALID,0.305859,
2005-07-06, 03:26:00,VALID,918.023,VALID,0,VALID,98.6015,VALID,0.0339617,VALID,18.0668,VALID,354,VALID,0.21689,
2005-07-06, 03:27:00,VALID,918.027,VALID,0,VALID,98.66,VALID,0.0169808,VALID,18.0931,VALID,354,VALID,0.00558036,
2005-07-06, 03:28:00,VALID,918.017,VALID,0,VALID,98.487,VALID,-0.0169808,VALID,18.1097,VALID,354,VALID,0.000520833,
2005-07-06, 03:29:00,VALID,918.02,VALID,0,VALID,98.1145,VALID,-0.0169808,VALID,18.0772,VALID,354,VALID,0.000710227,
2005-07-06, 03:30:00,VALID,918.01,VALID,0,VALID,98.089,VALID,0,VALID,18.0809,VALID,354,VALID,0.196766,
2005-07-06, 03:31:00,VALID,917.996,VALID,0,VALID,98.0369,VALID,-0.0339617,VALID,18.0643,VALID,354,VALID,0.308239,